Hourly Data Report for October 18, 2013

All times are specified in Local Standard Time (LST). Add 1 hour to adjust for Daylight Saving Time where and when it is observed.

MONCTON INTL A
NEW BRUNSWICK

46°06'44.000" N
64°40'43.000" W
70.70 m
8103201
71705
YQM

Related Data

No related data is available for this station

Download Data

Hourly Data (October 2013)
Hourly Data Report for October 18, 2013
Temp Definition
°C
Dew Point Temp Definition
°C
Rel Hum Definition
%
Wind Dir Definition
10's deg

Wind Spd Definition
km/h
Visibility Definition
km
Stn Press Definition
kPa
Hmdx Definition


Wind Chill Definition


Weather Definition


TIME
00:00 Legend Double Dagger 11.3 11.0 98 22 13 12.9 99.77     LegendNANA
01:00 Legend Double Dagger 11.8 11.3 97 22 16 16.1 99.77     LegendNANA
02:00 Legend Double Dagger 12.0 11.2 95 23 20 19.3 99.76     Cloudy
03:00 Legend Double Dagger 11.1 10.5 96 22 15 16.1 99.69     LegendNANA
04:00 Legend Double Dagger 11.0 10.6 97 23 19 16.1 99.72     LegendNANA
05:00 Legend Double Dagger 11.1 10.3 95 25 22 16.1 99.73     Cloudy
06:00 Legend Double Dagger 10.2 9.8 97 22 15 24.1 99.73     LegendNANA
07:00 Legend Double Dagger 9.9 9.5 97 22 10 16.1 99.70     LegendNANA
08:00 Legend Double Dagger 9.9 9.5 97 16 8 19.3 99.63     Rain
09:00 Legend Double Dagger 10.4 9.5 94 21 6 24.1 99.70     LegendNANA
10:00 Legend Double Dagger 10.9 10.1 95 17 9 24.1 99.66     LegendNANA
11:00 Legend Double Dagger 12.5 11.1 91 15 7 24.1 99.57     Mostly Cloudy
12:00 Legend Double Dagger 13.7 12.1 90 10 9 24.1 99.46     LegendNANA
13:00 Legend Double Dagger 12.9 11.3 90 13 14 24.1 99.37     Rain Showers
14:00 Legend Double Dagger 12.4 11.8 96 13 9 4.8 99.28     Rain Showers,Fog
15:00 Legend Double Dagger 12.8 11.9 94 14 14 24.1 99.22     LegendNANA
16:00 Legend Double Dagger 12.7 11.9 95 15 12 24.1 99.16     LegendNANA
17:00 Legend Double Dagger 12.6 12.0 96 17 13 3.2 99.14     Rain Showers,Fog
18:00 Legend Double Dagger 12.5 12.2 98 20 10 9.7 99.16     Rain Showers,Fog
19:00 Legend Double Dagger 12.7 12.4 98 25 14 12.9 99.21     Rain Showers
20:00 Legend Double Dagger 11.4 10.6 95 30 25 19.3 99.33     Rain Showers
21:00 Legend Double Dagger 11.2 10.1 93 28 15 24.1 99.45     LegendNANA
22:00 Legend Double Dagger 10.8 9.9 94 26 19 24.1 99.48     LegendNANA
23:00 Legend Double Dagger 10.3 9.5 95 24 17 24.1 99.53     Mostly Cloudy

Notes on Data Quality.

Legend

  • E = Estimated
  • M = Missing
  • NA = Not Available
  • ‡ = Partner data that is not subject to review by the National Climate Archives
Date modified: